This is the latest recevied weather packets stored in our database for station/object OM6ACB-6. If no packets are shown the sender has not sent any weather packets the latest 10 day(s).
| Time | Temp. | Humidity | Pressure | Rain* | Wind** | Luminosity | Snow |
|---|---|---|---|---|---|---|---|
| 1787856011 | 20.56° C | 22% | 1024 hPa | 0 mm | - | - | - |
| 1787855402 | 21.11° C | 22% | 1024 hPa | 0 mm | - | - | - |
| 1787854805 | 21.11° C | 22% | 1023.8 hPa | 0 mm | - | - | - |
| 1787854202 | 21.67° C | 22% | 1023.8 hPa | 0 mm | - | - | - |
| 1787853602 | 21.67° C | 22% | 1023.7 hPa | 0 mm | - | - | - |
| 1787853001 | 21.67° C | 22% | 1023.7 hPa | 0 mm | - | - | - |
| 1787852401 | 21.67° C | 22% | 1023.6 hPa | 0 mm | - | - | - |
| 1787851803 | 22.22° C | 21% | 1023.5 hPa | 0 mm | - | - | - |
| 1787851201 | 22.22° C | 21% | 1023.5 hPa | 0 mm | - | - | - |
| 1787850600 | 22.78° C | 21% | 1023.4 hPa | 0 mm | - | - | - |
| 1787850000 | 23.33° C | 21% | 1023.4 hPa | 0 mm | - | - | - |
| 1787849400 | 23.33° C | 21% | 1023.4 hPa | 0 mm | - | - | - |
| 1787848799 | 23.89° C | 21% | 1023.5 hPa | 0 mm | - | - | - |
| 1787848199 | 24.44° C | 20% | 1023.6 hPa | 0 mm | - | - | - |
| 1787847599 | 25° C | 20% | 1023.7 hPa | 0 mm | - | - | - |
| 1787846998 | 26.67° C | 20% | 1024.1 hPa | 0 mm | - | - | - |
| 1787846398 | 26.67° C | 20% | 1024 hPa | 0 mm | - | - | - |
| 1787845798 | 27.22° C | 20% | 1024.1 hPa | 0 mm | - | - | - |
| 1787845198 | 28.33° C | 20% | 1024.2 hPa | 0 mm | - | - | - |
| 1787844597 | 27.22° C | 20% | 1024.2 hPa | 0 mm | - | - | - |
| 1787843997 | 28.33° C | 20% | 1024.4 hPa | 0 mm | - | - | - |
| 1787843397 | 27.78° C | 20% | 1024.3 hPa | 0 mm | - | - | - |
| 1787842796 | 27.22° C | 20% | 1024.1 hPa | 0 mm | - | - | - |
| 1787842196 | 28.33° C | 20% | 1024.2 hPa | 0 mm | - | - | - |
| 1787841596 | 27.22° C | 20% | 1023.9 hPa | 0 mm | - | - | - |
* Rain latest hour (hover to see other rain measurements)
** Current wind speed in m/s (hover to see current wind gust speed)